Regional Weather Roundup
Issued by NWS Sioux Falls, SD

Home | Current Version | Previous Version | Graphics & Text | Print | Product List | Glossary On
Versions: 1 2 3 4 5 6 7 8 9 10 11 12 13 14 15 16 17 18 19 20 21 22 23 24 25 26 27 28 29 30 31 32 33 34 35 36 37 38 39 40 41 42 43 44 45 46 47 48 49 50
000
ASUS43 KFSD 201810
RWRFSD

WEATHER ROUNDUP FOR SE SOUTH DAKOTA/SW MINNESOTA/NW IOWA
NATIONAL WEATHER SERVICE SIOUX FALLS SD
1200 PM CST MON FEB 20 2017

NOTE: "FAIR" INDICATES FEW OR NO CLOUDS BELOW 12,000 FEET WITH NO
SIGNIFICANT WEATHER AND OR OBSTRUCTIONS TO VISIBILITY.


SDZ038>040-050-052>070-201900-
SOUTHEAST SOUTH DAKOTA

CITY           SKY/WX    TMP DP  RH WIND       PRES   REMARKS
BROOKINGS      PTSUNNY   55  53  93 S13       29.63F FOG
CHAMBERLAIN    DRIZZLE   47  44  87 NW13      29.75R
6HR MIN TEMP:  47; 6HR MAX TEMP:  55;

HURON          CLOUDY    46  41  82 NW18      29.68R
6HR MIN TEMP:  45; 6HR MAX TEMP:  53; 6HR PCP:  0.01;

MADISON        CLOUDY    54  54 100 SW15      29.65R
MITCHELL       CLOUDY    48  42  80 NW23      29.69R
6HR MIN TEMP:  48; 6HR MAX TEMP:  54; 6HR PCP: TRACE;

SIOUX FALLS    CLOUDY    57  55  93 SW10      29.66S FOG
6HR MIN TEMP:  53; 6HR MAX TEMP:  57; 6HR PCP:  0.13;

WINNER         FAIR      54  44  69 NW24      29.78R
YANKTON        CLOUDY   N/A N/A N/A W22G28    29.68R
$$

MNZ071-072-080-081-089-090-097-098-201900-
SOUTHWEST MINNESOTA

CITY           SKY/WX    TMP DP  RH WIND       PRES   REMARKS
FAIRMONT       LGT RAIN  53  52  96 S18       29.71F FOG
JACKSON        LGT RAIN  52  52 100 S13G22    29.71S
LUVERNE        LGT RAIN  54  52  94 S13       29.68S
MARSHALL       CLOUDY    56  54  93 S14       29.64F
6HR MIN TEMP:  51; 6HR MAX TEMP:  59; 6HR PCP:  0.15;

MONTEVIDEO     DRIZZLE   54  54 100 S10       29.64F
PIPESTONE      LGT RAIN  55  52  88 S14       29.66S VSB 1
REDWOOD FALLS  LGT RAIN  53  51  93 S13       29.66F FOG
TRACY          CLOUDY    54  54  97 S10G18    29.65S FOG
WINDOM         FOG       54  52  94 S12G17    29.69S VSB 1
WORTHINGTON    FOG       51  51 100 S10       29.69S VSB 1/4
$$

IAZ001>003-012>014-020>022-031-032-NEZ013-014-SDZ071-201900-
NORTHWEST IOWA

CITY           SKY/WX    TMP DP  RH WIND       PRES   REMARKS
CHEROKEE       CLOUDY    57  57  99 S12       29.71S FOG
DENISON        CLOUDY    57  57 100 S16G24    29.70S
ESTHERVILLE    LGT RAIN  53  53 100 S16       29.70F FOG
LE MARS        CLOUDY    57  57 100 S10       29.70S FOG
SHELDON        CLOUDY    57  57 100 S14G21    29.68F FOG
SIOUX CITY     CLOUDY    61  57  87 SW10      29.70F
6HR MIN TEMP:  56; 6HR MAX TEMP:  61; 6HR PCP: TRACE;

SPENCER        CLOUDY    54  53  97 S16       29.70F FOG
6HR MIN TEMP:  50; 6HR MAX TEMP:  54; 6HR PCP:  0.02;

STORM LAKE     CLOUDY    55  55 100 S14       29.72S FOG
$$

ABBREVIATIONS USED IN REMARKS
   TC - TEMPERATURE IN CELSIUS
  WCI - WIND CHILL INDEX
   HX - HEAT INDEX
  VSB - VISIBILITY





USA.gov is the U.S. government's official web portal to all federal, state and local government web resources and services.